Location: Volkssternwarte_EN
(51.3230°N, 7.4010°E)
Time: 07:05:57
(UTC+01:00)

BlueWalker 3 - Pass Details

Date: 06 December 2022
Orbit: 499 x 517 km, 53.2° (Epoch: 28 January)

Event Time Altitude Azimuth Distance (km) Brightness Sun altitude
Rises 18:57:57 0° 289° (WNW) 2,631 6.6 -23.0°
Reaches altitude 10° 19:00:10 10° 286° (WNW) 1,738 5.6 -23.3°
Enters shadow 19:03:52 61° 224° (SW) 584 2.3 -23.9°
